AO-07 1 07530U 74089B 25135.44783916 -.00000051 00000-0 -26712-4 0 9991 2 07530 101.9938 139.4439 0012285 168.3297 335.5367 12.53689049310671 UO-11 1 14781U 84021B 25135.47400352 .00001483 00000-0 16210-3 0 9996 2 14781 97.7528 102.3436 0009308 64.5531 295.6648 14.89312169197904 AO-27 1 22825U 93061C 25135.04261000 .00000126 00000-0 65453-4 0 9993 2 22825 98.7381 196.4686 0008413 180.0824 180.0358 14.30790511650069 FO-29 1 24278U 96046B 25135.31916313 .00000011 00000-0 45466-4 0 9992 2 24278 98.5787 32.5327 0350790 48.1627 314.8904 13.53247354419351 NOAA-15 1 25338U 98030A 25135.84934273 .00000229 00000-0 11192-3 0 9997 2 25338 98.5367 161.5741 0011424 74.5549 285.6893 14.26965248404873 GO-32 1 25397U 98043D 25135.54280364 .00000075 00000-0 52531-4 0 9990 2 25397 98.9692 114.1415 0000361 328.9112 31.2045 14.24308652394729 ISS 1 25544U 98067A 25135.89536437 .00007332 00000-0 13847-3 0 9992 2 25544 51.6351 107.0422 0002267 113.8653 246.2573 15.49547162510158 NO-44 1 26931U 01043C 25135.56731904 .00000144 00000-0 85119-4 0 9997 2 26931 67.0502 192.5101 0005847 273.8966 86.1467 14.31722291233683 SO-50 1 27607U 02058C 25135.37576322 .00001191 00000-0 16630-3 0 9999 2 27607 64.5528 278.3296 0053326 339.8450 20.0548 14.81559315205493 CO-55 1 27844U 03031E 25134.96272018 .00000339 00000-0 16685-3 0 9996 2 27844 98.6765 143.5666 0008367 260.7722 99.2510 14.23976256134996 CO-57 1 27848U 03031J 25135.46157492 .00000281 00000-0 14352-3 0 9999 2 27848 98.6791 144.0834 0008258 279.0364 80.9880 14.23313977134796 RS-22 1 27939U 03042A 25135.87894758 .00001207 00000-0 19918-3 0 9992 2 27939 98.3265 304.7378 0012749 89.1070 46.9916 14.72290773157195 NOAA-18 1 28654U 05018A 25135.77805873 .00000231 00000-0 14596-3 0 9994 2 28654 98.8420 215.5328 0014033 195.3708 164.7040 14.13597659 30249 CO-58 1 28895U 05043F 25135.34976711 .00001673 00000-0 28113-3 0 9993 2 28895 98.2467 279.3915 0015012 31.8900 328.3211 14.70931342 43232 CO-65 1 32785U 08021C 25135.79427382 .00005638 00000-0 41020-3 0 9996 2 32785 97.7846 106.7810 0008347 301.8791 58.1622 15.04185693925420 AAUSAT2 1 32788U 08021F 25135.44481356 .01319361 10177-2 20667-2 0 9995 2 32788 97.5838 134.3440 0009216 169.7194 190.4277 16.04161538929447 CO-66 1 32791U 08021J 25135.39803728 .00012086 00000-0 59559-3 0 9992 2 32791 97.7272 114.8923 0001620 233.3542 126.7542 15.18104512926672 RS-30 1 32953U 08025A 25135.77541799 .00000046 00000-0 25602-3 0 9990 2 32953 82.5034 242.6001 0020551 100.7588 259.5807 12.43164089770450 NOAA-19 1 33591U 09005A 25135.85129289 .00000210 00000-0 13556-3 0 9991 2 33591 98.9982 200.4155 0014750 75.6965 284.5843 14.13361738838617 SRMSAT 1 37841U 11058D 25134.65309527 .00000444 00000-0 97604-4 0 9992 2 37841 19.9731 311.4443 0011773 139.5655 293.6441 14.11427798701447 ZACUBE-1 1 39417U 13066B 25135.84696817 .00003870 00000-0 33955-3 0 9991 2 39417 97.7799 92.9998 0045624 132.7184 227.7893 14.96411163621213 Delfi-N3xt 1 39428U 13066N 25135.34752015 .00006952 00000-0 71179-3 0 9995 2 39428 97.8362 53.2880 0087327 83.7198 277.3957 14.87980647615323 GOMX-1 1 39430U 13066Q 25135.80450163 .00001497 00000-0 24018-3 0 9997 2 39430 97.6861 355.9875 0131144 271.8349 86.7841 14.67547631611778 LO-74 1 39440U 13066AA 25135.62598288 .00002949 00000-0 30329-3 0 9994 2 39440 97.8486 80.3646 0060459 262.3793 97.0555 14.89767592618922 AO-73 1 39444U 13066AE 25135.43391211 .00007364 00000-0 55595-3 0 9992 2 39444 97.7825 97.2581 0043218 110.7955 249.7907 15.01953704619810 DTUSAT-2 1 40030U 14033W 25135.34338677 .00006978 00000-0 45845-3 0 9994 2 40030 98.0538 105.9520 0010385 137.2514 222.9522 15.07913480592596 EO-80 1 40032U 14033Y 25135.36503900 .00006504 00000-0 42671-3 0 9990 2 40032 98.0429 105.6645 0010823 86.6501 273.5964 15.07991795592577 LILACSAT-2 1 40908U 15049K 25135.83109704 .00011007 00000-0 29314-3 0 9999 2 40908 97.5071 155.5891 0007601 241.6977 118.3501 15.38341244534428 IO-86 1 40931U 15052B 25038.81889873 .00001817 00000-0 15548-3 0 9993 2 40931 6.0001 108.1159 0012838 187.7041 172.2889 14.78568669506492 Horyu-4 1 41340U 16012D 25135.53040541 .00023049 00000-0 63682-3 0 9996 2 41340 30.9973 300.2608 0006732 146.6253 213.4818 15.35800642508935 Lapan A3 1 41603U 16040E 25135.84042237 .00003455 00000-0 12246-3 0 9996 2 41603 97.1374 141.4219 0011091 8.5649 351.5779 15.29688563494000 CAS-2T 1 41847U 16066G 25135.24111398 .00000863 00000-0 13332-3 0 9990 2 41847 98.4204 209.9226 0345165 255.1134 101.1598 14.43408379447360 CAS-4B 1 42759U 17034B 25135.90990143 .00059656 00000-0 70539-3 0 9991 2 42759 43.0071 108.5788 0017935 120.9889 239.2740 15.60249072438742 CAS-4A 1 42761U 17034D 25135.83352845 .00060547 00000-0 68664-3 0 9994 2 42761 43.0108 106.4344 0019218 124.8819 235.3855 15.61296285438757 TechnoSat 1 42829U 17042E 25135.52232062 .00002860 00000-0 22466-3 0 9996 2 42829 97.3932 305.4325 0014112 11.3721 348.7820 15.01579428426967 AO-91 1 43017U 17073E 25135.18662520 .00007347 00000-0 38193-3 0 9997 2 43017 97.5282 6.6053 0172481 253.0074 105.2188 15.04338220405398 S-Net D 1 43186U 18014G 25135.54431191 .00005517 00000-0 32869-3 0 9999 2 43186 97.5646 38.7082 0007889 320.2584 39.8067 15.11579010398592 S-Net B 1 43187U 18014H 25135.28458621 .00005240 00000-0 31254-3 0 9998 2 43187 97.5653 38.4217 0008523 315.3780 44.6763 15.11556662398558 S-Net A 1 43188U 18014J 25135.27998605 .00005519 00000-0 32872-3 0 9995 2 43188 97.5660 38.5639 0008442 316.0999 43.9560 15.11581503398555 S-Net C 1 43189U 18014K 25135.28691821 .00005134 00000-0 30625-3 0 9994 2 43189 97.5675 38.5808 0009759 306.4845 53.5485 15.11553637397105 Ten-Koh 1 43677U 18084G 25135.38898769 .00002144 00000-0 17548-3 0 9991 2 43677 98.0891 306.6457 0006188 8.8195 351.3136 15.00459534356461 PO-101 1 43678U 18084H 25135.81165312 .00002079 00000-0 18044-3 0 9990 2 43678 98.1013 310.9946 0008106 14.5225 345.6228 14.98215667356674 QO-100 1 43700U 18090A 25135.31256206 .00000160 00000-0 00000-0 0 9990 2 43700 0.0136 278.6730 0002471 174.0443 278.9385 1.00275794 23682 MinXSS-2 1 43758U 18099A 25135.40122811 .00015249 00000-0 61372-3 0 9992 2 43758 97.5024 201.3686 0010988 237.7943 122.2230 15.24924228353139 AO-95 1 43770U 18099N 25135.12165283 .00009116 00000-0 46705-3 0 9994 2 43770 97.4923 193.4950 0009155 303.4687 56.5671 15.16774100352696 RANGE-A 1 43773U 18099R 25135.86619736 .00004459 00000-0 28675-3 0 9996 2 43773 97.4499 184.9857 0009564 276.8010 83.2131 15.08863210352493 MOVE-II 1 43780U 18099Y 25135.56194853 .00158169 00000-0 15004-2 0 9998 2 43780 97.4666 209.4656 0006377 209.6786 150.4113 15.66385009353879 SNUSat 2 1 43782U 18099AA 25135.56454858 .00008176 00000-0 45026-3 0 9994 2 43782 97.4611 190.8862 0010987 234.5359 125.4847 15.14229440352715 SnugLite 1 43784U 18099AC 25134.69571251 .00009411 00000-0 47821-3 0 9994 2 43784 97.4424 189.5445 0002498 219.5573 140.5478 15.17083552352713 ITASat 1 1 43786U 18099AE 25135.14579036 .00006272 00000-0 36207-3 0 9994 2 43786 97.4580 190.0593 0012676 296.3642 63.6287 15.12614090352612 EAGLET 1 1 43790U 18099AJ 25134.88712000 .00004344 00000-0 27963-3 0 9996 2 43790 97.4780 189.8455 0010409 277.9884 82.0163 15.08836453352192 ESEO 1 43792U 18099AL 25135.49532357 .00001781 00000-0 13837-3 0 9998 2 43792 97.4462 184.0349 0011563 249.1857 110.8131 15.02502012352058 CSIM 1 43793U 18099AM 25135.28066421 .00143399 00000-0 13934-2 0 9999 2 43793 97.4832 211.3991 0007942 206.4480 153.6375 15.65814597353678 JO-97 1 43803U 18099AX 25134.65590283 .00010906 00000-0 50551-3 0 9993 2 43803 97.4672 193.9730 0006739 224.0937 135.9762 15.20232089352835 Suomi 100 1 43804U 18099AY 25134.69527999 .00009228 00000-0 45782-3 0 9997 2 43804 97.4743 193.3802 0011415 231.6892 128.3316 15.17879306352779 ISAT 1 43879U 18111D 25135.30577451 .00019194 00000-0 68404-3 0 9990 2 43879 97.5975 49.1583 0006515 293.7730 66.2826 15.28945880349830 UWE-4 1 43880U 18111E 25135.28716056 .00014793 00000-0 59132-3 0 9993 2 43880 97.5920 47.7898 0010193 306.0074 54.0218 15.25170805349778 Sparrow 1 43881U 18111F 25135.24215951 .00020983 00000-0 72132-3 0 9991 2 43881 97.6116 51.8746 0005983 349.0737 11.0372 15.30106882349919 Prox-1 1 44339U 19036A 25135.46400564 .00010136 00000-0 12922-2 0 9996 2 44339 23.9963 226.7150 0007631 140.9087 219.1962 14.79454645314294 SONATE 1 44400U 19038Q 25134.99780210 .00182984 00000-0 85315-3 0 9991 2 44400 97.6926 158.7323 0001452 356.5433 3.5825 15.82828780325511 Taurus 1 1 44530U 19059C 25135.80884868 .00006150 00000-0 11422-2 0 9990 2 44530 98.6049 274.0354 0010782 115.4055 244.8264 14.65536698300318 Duchifat 3 1 44854U 19089C 25135.42928543 .00037343 00000-0 78343-3 0 9993 2 44854 36.9422 154.8527 0001013 164.5992 195.4795 15.44452592299120 TO-108 1 44881U 19093C 25135.84051355 .00000929 00000-0 11351-3 0 9998 2 44881 97.7927 212.0073 0012702 317.3019 42.7208 14.85550480292409 FloripaSat 1 1 44885U 19093G 25135.83853277 .00005131 00000-0 43699-3 0 9994 2 44885 97.8142 223.3935 0009373 285.8648 74.1541 14.98196794293040 RS-44 1 44909U 19096E 25135.38013584 .00000030 00000-0 77309-4 0 9992 2 44909 82.5220 244.0183 0217224 354.8048 5.0798 12.79740402251462 UPMSat 2 1 46276U 20061E 25135.78241484 .00058487 00000-0 58314-3 0 9994 2 46276 97.2446 209.3905 0001514 160.1298 200.0021 15.65488949261581 SALSAT 1 46495U 20068K 25134.91930967 .00007051 00000-0 30827-3 0 9999 2 46495 97.8595 111.7726 0009578 247.8323 112.1896 15.22385086254623 CubeSX-Sirius-HSE 1 47951U 21022V 25135.86618396 .00369097 00000-0 13772-2 0 9992 2 47951 97.4143 48.0942 0006670 98.1292 262.0736 15.87044385229928 CubeSX-HSE 1 47952U 21022W 25135.87883688 .00331558 00000-0 12187-2 0 9992 2 47952 97.4161 48.3713 0005822 99.9272 260.2656 15.87446124229943 GRBAlpha 1 47959U 21022AD 25135.74223838 .00308644 00000-0 12257-2 0 9998 2 47959 97.4152 48.3004 0006177 97.2143 262.9830 15.85898410228742 TUBIN 1 48900U 21059X 25135.82706135 .00043335 00000-0 57002-3 0 9991 2 48900 97.6745 303.0863 0002381 318.1099 41.9973 15.58361271216189 LEDSAT 1 49069U 21073D 25135.78863635 .00058552 00000-0 79085-3 0 9990 2 49069 97.3898 216.3513 0011855 167.3459 192.8096 15.57503122207577 CUTE 1 49263U 21088D 25135.18741759 .00024736 00000-0 50693-3 0 9999 2 49263 97.4516 210.7239 0007109 340.2626 19.8347 15.46039615200501 TeikyoSat 4 1 49396U 21102B 25135.66119255 .00002613 00000-0 17580-3 0 9994 2 49396 97.4113 174.9882 0011720 212.9622 147.0877 15.07532257192791 Z-Sat 1 49399U 21102E 25135.83901352 .00003912 00000-0 21703-3 0 9998 2 49399 97.3815 178.1045 0018172 184.2926 175.8153 15.14193828193236 KOSEN 1 1 49402U 21102H 25135.06418924 .00007466 00000-0 34914-3 0 9992 2 49402 97.3721 180.5779 0016746 162.8161 197.3645 15.19931830193419 HO-113 1 50466U 21131B 25135.82974462 .00000602 00000-0 20196-3 0 9996 2 50466 98.5091 225.3058 0003899 193.3491 166.7595 14.40783809177883 IRIS-A 1 51044U 22002BN 25135.20836794 .00356309 49967-4 11007-2 0 9991 2 51044 97.3232 214.6872 0007158 231.6390 128.4242 15.91673225185858 Foresail-1 1 52766U 22057AL 25135.37686827 .00200011 00000-0 87048-3 0 9999 2 52766 97.6037 284.4622 0003702 277.8680 82.2168 15.84250130165893 SNUGLITE 2 1 52899U 22065F 25135.32445825 .00001174 00000-0 23739-3 0 9997 2 52899 98.1653 277.5499 0007594 183.0761 177.0396 14.63150482152792 IO-117 1 53106U 22080B 25051.21822557 -.00000003 00000-0 00000 0 0 9995 2 53106 70.1434 106.3440 0008542 48.0089 312.1297 6.42557744 61200 UmKA 1 (RS40S) 1 57172U 23091G 25135.84227060 .00006088 00000-0 32797-3 0 9995 2 57172 97.5592 191.3557 0015810 64.2244 296.0617 15.15074535103730 CubeBel-2 (EU11S) 1 57175U 23091K 25135.86891594 .00008943 00000-0 43166-3 0 9993 2 57175 97.5590 192.3826 0013758 73.2811 286.9931 15.18824248103802 VERONIKA 1 58261U 23174F 25135.80966536 .00108578 00000-0 11355-2 0 9994 2 58261 97.4129 220.6213 0006326 157.6657 202.4878 15.64080606 84803 ENSO 1 58470U 23185J 25135.85455814 .00049857 00000-0 78983-3 0 9990 2 58470 97.3745 210.2294 0008922 167.1759 192.9723 15.53220932 81192 EIRSAT-1 1 58472U 23185L 25135.83585482 .00088159 00000-0 97842-3 0 9998 2 58472 97.3710 211.7255 0007686 172.8042 187.3328 15.62613663 81290 SONATE-2 1 59112U 24043Q 25135.33749936 .00016554 00000-0 48972-3 0 9995 2 59112 97.5109 266.0304 0011359 198.7875 161.2950 15.34921759 66468 MO-122 1 60209U 24125G 25135.03114572 .00017506 00000-0 51130-3 0 9992 2 60209 97.2815 346.9493 0018017 225.0146 134.9638 15.35206968 48030 GRBBeta 1 60237U 24128C 25135.57977987 .00003189 00000-0 24907-3 0 9996 2 60237 61.9897 166.7094 0049933 51.7473 308.8095 15.02398506 46448 Curium One 1 60242U 24128H 25135.58956320 .00005569 00000-0 39768-3 0 9996 2 60242 61.9795 165.3211 0049908 47.3722 313.1561 15.04705156 46472 ROBUSTA-3A 1 60243U 24128J 25135.31879294 .00005214 00000-0 37820-3 0 9996 2 60243 61.9867 167.0136 0048462 45.0825 315.4183 15.04275590 46425 CatSat 1 60246U 24125J 25135.51339255 .00009895 00000-0 33554-3 0 9995 2 60246 97.2604 346.9185 0043185 181.2707 178.8431 15.29821860 46151 HYPERVIEW-1G (RS66S) 1 61772U 24199AP 25135.83896684 .00018621 00000-0 55770-3 0 9991 2 61772 97.3562 4.7627 0011791 282.0348 77.9573 15.34497861 73162 AO-123 1 61781U 24199AY 25135.82900580 .00006404 00000-0 23635-3 0 9992 2 61781 97.3575 3.8897 0014126 287.6032 72.3665 15.28024989 73106 ZIMSAT 2 1 61783U 24199BA 25135.83832441 .00032260 00000-0 83493-3 0 9992 2 61783 97.3544 5.2016 0011656 278.3669 81.6255 15.38939407 76349 HADES-R (SO-124) 1 62690U 25009CK 25135.00878211 .00035335 00000-0 13156-2 0 9999 2 62690 97.4096 215.9487 0004586 167.7075 192.4277 15.27382786 18248 HYDRA-T 1 62692U 25009CM 25134.99811003 .00036122 00000-0 13361-2 0 9997 2 62692 97.4095 215.9619 0004450 164.3991 195.7386 15.27595097 18244 JINJUSat 1B 1 63210U 25052A 25134.66388185 .00010887 00000-0 50728-3 0 9995 2 63210 97.4447 29.1234 0006148 65.4152 294.7723 15.20054069 9311 NUSHSAT 1 1 63211U 25052B 25135.18866646 .00013046 00000-0 60397-3 0 9990 2 63211 97.4434 29.6383 0006268 68.1258 292.0643 15.20229223 9394 TEVEL2-4 1 63213U 25052D 25134.67086484 .00010986 00000-0 51349-3 0 9996 2 63213 97.4352 29.0438 0005584 82.5669 277.6201 15.19945551 9314 TEVEL2-5 1 63214U 25052E 25134.93451388 .00012003 00000-0 56075-3 0 9998 2 63214 97.4351 29.3029 0005576 81.6975 278.4892 15.19938235 9354 TEVEL2-6 1 63215U 25052F 25135.26515471 .00011953 00000-0 55897-3 0 9994 2 63215 97.4351 29.6260 0005641 81.6570 278.5305 15.19906548 9407 TEVEL2-1 1 63217U 25052H 25134.68011531 .00010339 00000-0 48705-3 0 9996 2 63217 97.4326 29.0135 0005906 91.7588 268.4323 15.19687797 9311 TEVEL2-2 1 63218U 25052J 25135.60221687 .00011493 00000-0 54067-3 0 9995 2 63218 97.4326 29.9214 0005920 90.0435 270.1478 15.19706289 9452 TEVEL2-3 1 63219U 25052K 25135.60226441 .00011429 00000-0 53776-3 0 9994 2 63219 97.4326 29.9211 0005910 89.9549 270.2363 15.19702795 9454 TEVEL2-8 1 63237U 25052AD 25135.25277487 .00011799 00000-0 57386-3 0 9992 2 63237 97.4393 29.5214 0010328 101.0983 259.1413 15.18512423 9395 TEVEL2-9 1 63238U 25052AE 25135.18830568 .00011700 00000-0 56994-3 0 9996 2 63238 97.4396 29.4560 0010448 101.6820 258.5587 15.18460097 9384 TEVEL2-7 1 63239U 25052AF 25135.18967957 .00011762 00000-0 57349-3 0 9993 2 63239 97.4390 29.4532 0010413 101.8253 258.4149 15.18425054 9389 HYDRA-W 1 63490U 25052BL 25133.66483180 .00024035 00000-0 10565-2 0 9999 2 63490 97.4350 28.0903 0014727 104.5772 255.7098 15.21794504 9161 HADES-ICM 1 63492U 25052BN 25134.65948452 .00023575 00000-0 10456-2 0 9996 2 63492 97.4353 29.0569 0014919 104.8186 255.4704 15.21490887 9315